Weather History for KFOA - October, 2012

Change the Weather History Date:

Sunday, October 7, 2012

  Actual Average (KEVV) Record (KEVV)
Temperature  
Mean Temperature 46 °F 60 °F  
Max Temperature 54 °F 73 °F 93 °F (2007)
Min Temperature 39 °F 48 °F 29 °F (1952)
Degree Days  
Heating Degree Days 18 6  
Month to date heating degree days 38  
Since 1 July heating degree days 85  
Cooling Degree Days 0 2  
Month to date cooling degree days 14  
Year to date cooling degree days 1380  
Moisture  
Dew Point 35 °F    
Average Humidity 66    
Maximum Humidity 93    
Minimum Humidity 42    
Precipitation  
Precipitation 0.00 in 0.10 in 2.15 in (1900)
Month to date precipitation 0.74  
Year to date precipitation 34.71  
Snow  
Snow 0.00 in 0.00 in 0.00 in (2002)
Month to date snowfall 0.0  
Since 1 July snowfall 0.0  
Since 1 September snowfall 0.0  
Snow Depth -    
Sea Level Pressure  
Sea Level Pressure 30.22 in    
Wind  
Wind Speed 6 mph (NW)    
Max Wind Speed 14 mph    
Max Gust Speed 21 mph    
Visibility 10 miles    
Events      
T = Trace of Precipitation, MM = Missing Value Source: NWS Daily Summary

Daily Weather History Graph

Daily Weather History Graph

Search for Another Location

Airport or City:

Trip Planner

Search our weather history database for the weather conditions in past years. The results will help you decide how hot, cold, wet, or windy it might be!

Date:

Astronomy

Oct. 07, 2012 Rise Set
Actual Time 6:55 AM CDT 6:26 PM CDT
Civil Twilight 6:29 AM CDT 6:53 PM CDT
Nautical Twilight 5:58 AM CDT 7:23 PM CDT
Astronomical Twilight 5:27 AM CDT 7:54 PM CDT
Moon 11:40 PM CDT (10/7) 1:30 PM CDT (10/7)
Length of Visible Light 12h 23m
Length of Day
11h 30m
Waning Gibbous, 56% of the Moon is Illuminated
Oct 7
Waning Gibbous
Oct 8
Last Quarter
Oct 15
New
Oct 21
First Quarter
Oct 29
Full

Hourly Weather History & Observations

Time (CDT) Temp. Windchill Dew Point Humidity Pressure Visibility Wind Dir Wind Speed Gust Speed Precip Events Conditions
12:15 AM 44.6 °F 42.2 °F 35.1 °F 69% 30.21 in 10.0 mi NNW 4.6 mph - N/A   Overcast
12:35 AM 44.2 °F 41.0 °F 35.6 °F 72% 30.21 in 10.0 mi NW 5.8 mph - N/A   Overcast
12:55 AM 44.1 °F 40.1 °F 35.6 °F 72% 30.21 in 10.0 mi NW 6.9 mph - N/A   Overcast
1:15 AM 44.1 °F 40.1 °F 35.6 °F 72% 30.22 in 10.0 mi NW 6.9 mph - N/A   Overcast
1:35 AM 43.9 °F 40.5 °F 35.4 °F 72% 30.22 in 10.0 mi NNW 5.8 mph - N/A   Overcast
1:55 AM 43.7 °F 40.3 °F 35.6 °F 73% 30.22 in 10.0 mi NW 5.8 mph - N/A   Overcast
2:15 AM 43.7 °F 39.7 °F 35.2 °F 72% 30.22 in 10.0 mi NW 6.9 mph - N/A   Overcast
2:35 AM 43.7 °F 40.3 °F 35.4 °F 73% 30.22 in 10.0 mi NW 5.8 mph - N/A   Overcast
2:55 AM 43.3 °F 39.9 °F 35.8 °F 75% 30.22 in 10.0 mi NW 5.8 mph - N/A   Overcast
3:15 AM 43.2 °F 39.7 °F 35.6 °F 75% 30.22 in 10.0 mi NNW 5.8 mph - N/A   Overcast
3:35 AM 43.0 °F 40.3 °F 35.8 °F 76% 30.21 in 10.0 mi NNW 4.6 mph - N/A   Overcast
3:55 AM 42.8 °F 40.1 °F 35.8 °F 76% 30.21 in 10.0 mi NW 4.6 mph - N/A   Overcast
4:15 AM 42.8 °F 40.1 °F 36.0 °F 77% 30.22 in 10.0 mi NW 4.6 mph - N/A   Overcast
4:35 AM 42.8 °F 41.1 °F 36.1 °F 77% 30.21 in 10.0 mi NW 3.5 mph - N/A   Overcast
4:55 AM 42.4 °F 39.6 °F 36.1 °F 78% 30.21 in 10.0 mi NW 4.6 mph - N/A   Mostly Cloudy
5:15 AM 42.3 °F 39.4 °F 36.1 °F 79% 30.21 in 10.0 mi NW 4.6 mph - N/A   Mostly Cloudy
5:35 AM 42.3 °F 40.5 °F 36.5 °F 80% 30.21 in 10.0 mi NW 3.5 mph - N/A   Overcast
5:55 AM 42.1 °F 39.2 °F 36.9 °F 82% 30.22 in 10.0 mi WNW 4.6 mph - N/A   Overcast
6:15 AM 41.9 °F 39.0 °F 36.5 °F 81% 30.22 in 10.0 mi NW 4.6 mph - N/A   Mostly Cloudy
6:35 AM 41.7 °F 38.0 °F 36.5 °F 82% 30.22 in 10.0 mi WNW 5.8 mph - N/A   Mostly Cloudy
6:55 AM 41.4 °F 38.4 °F 36.7 °F 83% 30.23 in 10.0 mi West 4.6 mph - N/A   Scattered Clouds
7:15 AM 41.4 °F 38.4 °F 36.5 °F 83% 30.24 in 10.0 mi West 4.6 mph - N/A   Mostly Cloudy
7:35 AM 40.8 °F 36.9 °F 36.7 °F 85% 30.24 in 10.0 mi West 5.8 mph - N/A   Scattered Clouds
7:55 AM 42.4 °F 38.8 °F 37.2 °F 82% 30.24 in 10.0 mi West 5.8 mph - N/A   Scattered Clouds
8:15 AM 43.0 °F 37.7 °F 37.0 °F 80% 30.25 in 10.0 mi WNW 9.2 mph - N/A   Scattered Clouds
8:35 AM 44.1 °F 41.5 °F 36.7 °F 75% 30.25 in 10.0 mi NW 4.6 mph - N/A   Clear
8:55 AM 45.1 °F 42.0 °F 36.3 °F 71% 30.25 in 10.0 mi NW 5.8 mph - N/A   Clear
9:15 AM 45.9 °F 42.9 °F 35.6 °F 67% 30.25 in 10.0 mi NW 5.8 mph - N/A   Clear
9:35 AM 47.1 °F - 35.1 °F 63% 30.26 in 10.0 mi NNW 10.4 mph 17.3 mph N/A   Clear
9:55 AM 48.6 °F - 35.2 °F 60% 30.26 in 10.0 mi NNW 13.8 mph - N/A   Clear
10:15 AM 48.7 °F - 34.0 °F 57% 30.25 in 10.0 mi West 9.2 mph 20.7 mph N/A   Clear
10:35 AM 49.3 °F - 33.1 °F 54% 30.25 in 10.0 mi NW 6.9 mph - N/A   Scattered Clouds
10:55 AM 50.2 °F - 33.1 °F 52% 30.26 in 10.0 mi NNW 9.2 mph - N/A   Scattered Clouds
11:15 AM 50.4 °F - 32.5 °F 50% 30.26 in 10.0 mi West 10.4 mph - N/A   Mostly Cloudy
11:35 AM 51.4 °F - 32.2 °F 48% 30.26 in 10.0 mi NW 5.8 mph - N/A   Mostly Cloudy
11:55 AM 50.7 °F - 32.0 °F 49% 30.26 in 10.0 mi WNW 11.5 mph - N/A   Mostly Cloudy
12:15 PM 50.9 °F - 32.2 °F 49% 30.26 in 10.0 mi WNW 11.5 mph 16.1 mph N/A   Scattered Clouds
12:35 PM 52.9 °F - 33.3 °F 47% 30.25 in 10.0 mi WNW 9.2 mph - N/A   Scattered Clouds
12:55 PM 50.4 °F - 32.0 °F 49% 30.25 in 10.0 mi NNW 5.8 mph - N/A   Mostly Cloudy
1:15 PM 52.9 °F - 32.7 °F 46% 30.24 in 10.0 mi WNW 8.1 mph - N/A   Mostly Cloudy
1:35 PM 54.0 °F - 32.9 °F 45% 30.23 in 10.0 mi WNW 5.8 mph 17.3 mph N/A   Scattered Clouds
1:55 PM 52.0 °F - 31.3 °F 45% 30.22 in 10.0 mi WNW 9.2 mph - N/A   Clear
2:15 PM 53.8 °F - 32.7 °F 45% 30.22 in 10.0 mi NW 8.1 mph - N/A   Scattered Clouds
2:35 PM 54.0 °F - 32.7 °F 45% 30.21 in 10.0 mi NW 9.2 mph - N/A   Scattered Clouds
2:55 PM 53.6 °F - 33.1 °F 46% 30.21 in 10.0 mi NW 8.1 mph - N/A   Scattered Clouds
3:15 PM 54.3 °F - 32.5 °F 44% 30.21 in 10.0 mi NW 6.9 mph - N/A   Scattered Clouds
3:35 PM 53.6 °F - 31.3 °F 43% 30.21 in 10.0 mi WNW 10.4 mph - N/A   Scattered Clouds
3:55 PM 54.0 °F - 31.6 °F 43% 30.20 in 10.0 mi WNW 6.9 mph - N/A   Scattered Clouds
4:15 PM 53.6 °F - 31.3 °F 43% 30.20 in 10.0 mi NW 6.9 mph - N/A   Clear
4:35 PM 53.8 °F - 31.3 °F 42% 30.19 in 10.0 mi NW 4.6 mph - N/A   Clear
4:55 PM 53.6 °F - 31.6 °F 43% 30.19 in 10.0 mi NNE 4.6 mph - N/A   Clear
5:15 PM 53.1 °F - 30.7 °F 43% 30.19 in 10.0 mi NNW 3.5 mph - N/A   Clear
5:35 PM 51.1 °F - 31.5 °F 47% 30.19 in 10.0 mi WNW 4.6 mph - N/A   Clear
5:55 PM 50.5 °F - 31.8 °F 49% 30.20 in 10.0 mi NW 4.6 mph - N/A   Clear
6:15 PM 49.6 °F - 32.7 °F 52% 30.20 in 10.0 mi Calm Calm - N/A   Clear
6:35 PM 50.0 °F - 32.0 °F 50% 30.19 in 10.0 mi Calm Calm - N/A   Clear
7:14 PM 44.6 °F - 37.4 °F 76% 30.20 in 10.0 mi Calm Calm - N/A   Clear
7:54 PM 42.8 °F - 39.2 °F 87% 30.21 in 10.0 mi Calm Calm - N/A   Clear
8:14 PM 42.8 °F - 39.2 °F 87% 30.22 in 10.0 mi Calm Calm - N/A   Clear
9:14 PM 42.8 °F - 39.2 °F 87% 30.22 in 10.0 mi Calm Calm - N/A   Clear
9:34 PM 41.0 °F - 37.4 °F 87% 30.22 in 10.0 mi Calm Calm - N/A   Clear
9:54 PM 42.8 °F - 37.4 °F 81% 30.22 in 10.0 mi Calm Calm - N/A   Clear
10:14 PM 42.8 °F - 37.4 °F 81% 30.22 in 10.0 mi Calm Calm - N/A   Clear
10:34 PM 39.2 °F - 37.4 °F 93% 30.22 in 10.0 mi Calm Calm - N/A   Clear
10:54 PM 41.0 °F - 39.2 °F 93% 30.22 in 10.0 mi Calm Calm - N/A   Clear
11:34 PM 39.2 °F - 37.4 °F 93% 30.21 in 10.0 mi Calm Calm - N/A   Clear
11:54 PM 39.2 °F - 37.4 °F 93% 30.20 in 10.0 mi Calm Calm - N/A   Clear